Time,TemperatureF,DewpointF,PressureIn,WindDirection,WindDirectionDegrees,WindSpeedMPH,WindSpeedGustMPH,Humidity,HourlyPrecipIn,Conditions,Clouds,dailyrainin,SoftwareType,DateUTC
2013-04-21 00:00:00,50.0,47.0,29.97,West,261,0.0,1.0,91,0.00,,,0.00,,2013-04-21 07:00:00,
2013-04-21 00:10:00,50.2,48.0,29.97,West,280,0.0,0.0,91,0.00,,,0.00,,2013-04-21 07:10:00,
2013-04-21 00:20:00,50.3,48.0,29.97,West,279,0.0,0.0,91,0.00,,,0.00,,2013-04-21 07:20:00,
2013-04-21 00:30:00,50.2,48.0,29.96,West,279,0.0,0.0,91,0.00,,,0.00,,2013-04-21 07:30:00,
2013-04-21 00:40:00,50.1,48.0,29.96,West,279,0.0,0.0,91,0.00,,,0.00,,2013-04-21 07:40:00,
2013-04-21 00:50:00,49.9,47.0,29.96,West,279,0.0,0.0,91,0.00,,,0.00,,2013-04-21 07:50:00,
2013-04-21 01:00:00,50.0,48.0,29.96,West,261,0.0,0.0,92,0.00,,,0.00,,2013-04-21 08:00:00,
2013-04-21 01:10:00,50.1,48.0,29.96,West,280,0.0,0.0,92,0.00,,,0.00,,2013-04-21 08:10:00,
2013-04-21 01:20:00,49.9,47.0,29.95,West,280,0.0,0.0,91,0.00,,,0.00,,2013-04-21 08:20:00,
2013-04-21 01:30:00,50.0,48.0,29.95,West,279,0.0,0.0,92,0.00,,,0.00,,2013-04-21 08:30:00,
2013-04-21 01:40:00,50.1,48.0,29.95,West,279,0.0,0.0,92,0.00,,,0.00,,2013-04-21 08:40:00,
2013-04-21 01:50:00,50.3,48.0,29.94,West,279,0.0,0.0,92,0.00,,,0.00,,2013-04-21 08:50:00,
2013-04-21 02:00:00,50.1,48.0,29.94,West,279,0.0,0.0,91,0.00,,,0.00,,2013-04-21 09:00:00,
2013-04-21 02:10:00,49.8,47.0,29.93,West,280,0.0,0.0,91,0.00,,,0.00,,2013-04-21 09:10:00,
2013-04-21 02:20:00,49.6,47.0,29.93,West,279,0.0,0.0,92,0.00,,,0.00,,2013-04-21 09:20:00,
2013-04-21 02:30:00,49.6,47.0,29.93,West,279,0.0,0.0,92,0.00,,,0.00,,2013-04-21 09:30:00,
2013-04-21 02:40:00,49.5,47.0,29.93,West,281,0.0,0.0,92,0.00,,,0.00,,2013-04-21 09:40:00,
2013-04-21 02:50:00,49.1,47.0,29.93,West,281,0.0,0.0,92,0.00,,,0.00,,2013-04-21 09:50:00,
2013-04-21 03:00:00,49.4,47.0,29.93,West,261,0.0,1.0,92,0.00,,,0.00,,2013-04-21 10:00:00,
2013-04-21 03:10:00,49.5,47.0,29.92,West,281,0.0,1.0,92,0.00,,,0.00,,2013-04-21 10:10:00,
2013-04-21 03:20:00,49.2,47.0,29.92,West,262,0.0,0.0,91,0.00,,,0.00,,2013-04-21 10:20:00,
2013-04-21 03:30:00,49.0,47.0,29.92,West,280,0.0,0.0,92,0.00,,,0.00,,2013-04-21 10:30:00,
2013-04-21 03:40:00,49.1,47.0,29.92,West,280,0.0,0.0,92,0.00,,,0.00,,2013-04-21 10:40:00,
2013-04-21 03:50:00,48.6,46.0,29.92,West,281,0.0,0.0,92,0.00,,,0.00,,2013-04-21 10:50:00,
2013-04-21 04:00:00,48.6,46.0,29.91,West,262,0.0,0.0,92,0.00,,,0.00,,2013-04-21 11:00:00,
2013-04-21 04:10:00,48.7,46.0,29.91,West,281,0.0,0.0,92,0.00,,,0.00,,2013-04-21 11:10:00,
2013-04-21 04:20:00,48.8,47.0,29.92,West,281,0.0,0.0,92,0.00,,,0.00,,2013-04-21 11:20:00,
2013-04-21 04:30:00,48.7,46.0,29.92,West,261,0.0,0.0,92,0.00,,,0.00,,2013-04-21 11:30:00,
2013-04-21 04:40:00,48.7,46.0,29.91,West,281,0.0,0.0,92,0.00,,,0.00,,2013-04-21 11:40:00,
2013-04-21 04:50:00,48.3,46.0,29.92,West,262,0.0,0.0,92,0.00,,,0.00,,2013-04-21 11:50:00,
2013-04-21 05:00:00,48.3,46.0,29.92,West,281,0.0,1.0,92,0.00,,,0.00,,2013-04-21 12:00:00,
2013-04-21 05:10:00,48.3,46.0,29.92,WNW,286,0.0,0.0,92,0.00,,,0.00,,2013-04-21 12:10:00,
2013-04-21 05:20:00,48.6,47.0,29.92,WNW,286,0.0,0.0,93,0.00,,,0.00,,2013-04-21 12:20:00,
2013-04-21 05:30:00,48.5,47.0,29.92,West,267,0.0,1.0,93,0.00,,,0.00,,2013-04-21 12:30:00,
2013-04-21 05:40:00,48.4,46.0,29.93,WNW,286,0.0,1.0,93,0.00,,,0.00,,2013-04-21 12:40:00,
2013-04-21 05:50:00,48.9,47.0,29.93,West,268,0.0,0.0,93,0.00,,,0.00,,2013-04-21 12:50:00,
2013-04-21 06:00:00,48.9,47.0,29.93,West,268,0.0,0.0,93,0.00,,,0.00,,2013-04-21 13:00:00,
2013-04-21 06:10:00,48.8,47.0,29.93,WNW,286,0.0,0.0,93,0.00,,,0.00,,2013-04-21 13:10:00,
2013-04-21 06:20:00,48.9,47.0,29.92,WNW,286,0.0,1.0,93,0.00,,,0.00,,2013-04-21 13:20:00,
2013-04-21 06:30:00,48.9,47.0,29.93,West,268,0.0,1.0,93,0.00,,,0.00,,2013-04-21 13:30:00,
2013-04-21 06:40:00,49.2,48.0,29.93,WNW,286,0.0,1.0,94,0.00,,,0.00,,2013-04-21 13:40:00,
2013-04-21 06:50:00,49.4,47.0,29.93,WNW,286,0.0,0.0,93,0.00,,,0.00,,2013-04-21 13:50:00,
2013-04-21 07:00:00,49.4,47.0,29.93,South,178,0.0,0.0,93,0.00,,,0.00,,2013-04-21 14:00:00,
2013-04-21 07:10:00,49.7,48.0,29.94,South,178,0.0,0.0,93,0.00,,,0.00,,2013-04-21 14:10:00,
2013-04-21 07:20:00,49.9,48.0,29.94,NNW,328,0.0,0.0,93,0.00,,,0.00,,2013-04-21 14:20:00,
2013-04-21 07:30:00,50.8,49.0,29.94,NNW,336,0.0,0.0,93,0.00,,,0.00,,2013-04-21 14:30:00,
2013-04-21 07:40:00,50.7,49.0,29.94,NNW,336,0.0,0.0,93,0.00,,,0.00,,2013-04-21 14:40:00,
2013-04-21 07:50:00,50.3,48.0,29.94,NW,325,0.0,0.0,92,0.00,,,0.00,,2013-04-21 14:50:00,
2013-04-21 08:00:00,50.1,48.0,29.95,NW,325,0.0,1.0,92,0.00,,,0.00,,2013-04-21 15:00:00,
2013-04-21 08:10:00,50.1,48.0,29.95,NW,313,0.0,1.0,92,0.00,,,0.00,,2013-04-21 15:10:00,
2013-04-21 08:20:00,51.0,49.0,29.94,WNW,284,0.0,1.0,92,0.00,,,0.00,,2013-04-21 15:20:00,
2013-04-21 08:30:00,51.4,49.0,29.95,WSW,254,0.0,0.0,92,0.00,,,0.00,,2013-04-21 15:30:00,
2013-04-21 08:40:00,51.8,50.0,29.95,West,275,0.0,1.0,93,0.00,,,0.00,,2013-04-21 15:40:00,
2013-04-21 08:50:00,51.7,49.0,29.95,West,259,0.0,1.0,92,0.00,,,0.00,,2013-04-21 15:50:00,
2013-04-21 09:00:00,51.9,50.0,29.95,WNW,295,0.0,1.0,92,0.00,,,0.00,,2013-04-21 16:00:00,
2013-04-21 09:10:00,52.2,50.0,29.96,West,266,0.0,1.0,92,0.00,,,0.00,,2013-04-21 16:10:00,
2013-04-21 09:20:00,52.4,50.0,29.96,West,274,0.0,0.0,92,0.00,,,0.00,,2013-04-21 16:20:00,
2013-04-21 09:30:00,52.4,50.0,29.95,WSW,254,0.0,1.0,92,0.00,,,0.00,,2013-04-21 16:30:00,
2013-04-21 09:40:00,52.6,50.0,29.95,West,267,0.0,1.0,92,0.00,,,0.00,,2013-04-21 16:40:00,
2013-04-21 09:50:00,52.9,50.0,29.96,West,273,0.0,1.0,91,0.00,,,0.00,,2013-04-21 16:50:00,
2013-04-21 10:00:00,53.3,51.0,29.96,West,273,0.0,1.0,91,0.00,,,0.00,,2013-04-21 17:00:00,
2013-04-21 10:10:00,53.6,51.0,29.96,WSW,255,0.0,0.0,90,0.00,,,0.00,,2013-04-21 17:10:00,
2013-04-21 10:20:00,53.6,51.0,29.96,West,273,0.0,0.0,90,0.00,,,0.00,,2013-04-21 17:20:00,
2013-04-21 10:30:00,53.9,51.0,29.97,West,263,0.0,0.0,90,0.00,,,0.00,,2013-04-21 17:30:00,
2013-04-21 10:40:00,54.1,51.0,29.97,West,276,0.0,0.0,89,0.00,,,0.00,,2013-04-21 17:40:00,
2013-04-21 10:50:00,54.1,51.0,29.97,West,265,0.0,0.0,89,0.00,,,0.00,,2013-04-21 17:50:00,
2013-04-21 11:00:00,54.3,51.0,29.97,West,264,0.0,0.0,89,0.00,,,0.00,,2013-04-21 18:00:00,
2013-04-21 11:10:00,55.0,52.0,29.97,West,269,0.0,1.0,89,0.00,,,0.00,,2013-04-21 18:10:00,
2013-04-21 11:20:00,56.0,53.0,29.96,West,269,0.0,0.0,89,0.00,,,0.00,,2013-04-21 18:20:00,
2013-04-21 11:30:00,55.4,52.0,29.96,WSW,247,0.0,0.0,87,0.00,,,0.00,,2013-04-21 18:30:00,
2013-04-21 11:40:00,55.1,52.0,29.96,WSW,246,0.0,0.0,88,0.00,,,0.00,,2013-04-21 18:40:00,
2013-04-21 11:50:00,54.9,51.0,29.96,WSW,240,0.0,0.0,88,0.00,,,0.00,,2013-04-21 18:50:00,
2013-04-21 12:00:00,54.7,51.0,29.96,WSW,241,0.0,0.0,88,0.00,,,0.00,,2013-04-21 19:00:00,
2013-04-21 12:10:00,55.1,52.0,29.95,WSW,242,0.0,0.0,88,0.00,,,0.00,,2013-04-21 19:10:00,
2013-04-21 12:20:00,56.1,53.0,29.95,WSW,251,0.0,1.0,88,0.00,,,0.00,,2013-04-21 19:20:00,
2013-04-21 12:30:00,56.4,53.0,29.95,WSW,251,0.0,1.0,88,0.00,,,0.00,,2013-04-21 19:30:00,
2013-04-21 12:40:00,57.6,54.0,29.95,WSW,247,0.0,0.0,87,0.00,,,0.00,,2013-04-21 19:40:00,
2013-04-21 12:50:00,58.5,54.0,29.95,West,273,0.0,0.0,85,0.00,,,0.00,,2013-04-21 19:50:00,
2013-04-21 13:00:00,59.2,54.0,29.94,West,267,0.0,0.0,83,0.00,,,0.00,,2013-04-21 20:00:00,
2013-04-21 13:10:00,59.2,54.0,29.94,West,269,0.0,0.0,83,0.00,,,0.00,,2013-04-21 20:10:00,
2013-04-21 13:20:00,58.5,54.0,29.94,West,268,0.0,0.0,84,0.00,,,0.00,,2013-04-21 20:20:00,
2013-04-21 13:30:00,58.0,53.0,29.94,WSW,242,0.0,0.0,82,0.00,,,0.00,,2013-04-21 20:30:00,
2013-04-21 13:40:00,58.4,54.0,29.93,WSW,247,0.0,0.0,84,0.00,,,0.00,,2013-04-21 20:40:00,
2013-04-21 13:50:00,58.1,53.0,29.93,WSW,246,0.0,0.0,82,0.00,,,0.00,,2013-04-21 20:50:00,
2013-04-21 14:00:00,58.4,53.0,29.93,WSW,245,0.0,0.0,83,0.00,,,0.00,,2013-04-21 21:00:00,
2013-04-21 14:10:00,58.2,53.0,29.93,WSW,241,0.0,0.0,83,0.00,,,0.00,,2013-04-21 21:10:00,
2013-04-21 14:20:00,58.3,53.0,29.93,WSW,239,0.0,0.0,83,0.00,,,0.00,,2013-04-21 21:20:00,
2013-04-21 14:30:00,59.3,54.0,29.93,SW,227,0.0,1.0,84,0.00,,,0.00,,2013-04-21 21:30:00,
2013-04-21 14:40:00,59.3,54.0,29.93,SW,236,0.0,0.0,82,0.00,,,0.00,,2013-04-21 21:40:00,
2013-04-21 14:50:00,59.8,55.0,29.93,SW,223,0.0,0.0,83,0.00,,,0.00,,2013-04-21 21:50:00,
2013-04-21 15:00:00,58.4,53.0,29.93,SW,220,0.0,0.0,82,0.00,,,0.00,,2013-04-21 22:00:00,
2013-04-21 15:10:00,58.1,53.0,29.92,SW,227,0.0,0.0,83,0.00,,,0.00,,2013-04-21 22:10:00,
2013-04-21 15:20:00,58.4,53.0,29.92,SW,227,0.0,0.0,83,0.00,,,0.00,,2013-04-21 22:20:00,
2013-04-21 15:30:00,58.6,53.0,29.92,SW,228,0.0,0.0,83,0.00,,,0.00,,2013-04-21 22:30:00,
2013-04-21 15:40:00,58.2,53.0,29.92,SW,228,0.0,0.0,83,0.00,,,0.00,,2013-04-21 22:40:00,
2013-04-21 15:50:00,59.7,55.0,29.92,SW,228,0.0,0.0,84,0.00,,,0.00,,2013-04-21 22:50:00,
2013-04-21 16:00:00,60.8,55.0,29.92,SW,232,0.0,0.0,81,0.00,,,0.00,,2013-04-21 23:00:00,
2013-04-21 16:10:00,61.2,55.0,29.92,WSW,242,0.0,0.0,80,0.00,,,0.00,,2013-04-21 23:10:00,
2013-04-21 16:20:00,60.4,54.0,29.91,WSW,244,0.0,0.0,79,0.00,,,0.00,,2013-04-21 23:20:00,
2013-04-21 16:30:00,60.4,54.0,29.91,West,268,0.0,0.0,79,0.00,,,0.00,,2013-04-21 23:30:00,
2013-04-21 16:40:00,60.5,54.0,29.91,West,272,0.0,0.0,78,0.00,,,0.00,,2013-04-21 23:40:00,
2013-04-21 16:50:00,60.9,55.0,29.90,WSW,257,0.0,0.0,80,0.00,,,0.00,,2013-04-21 23:50:00,
2013-04-21 17:00:00,60.5,54.0,29.90,WSW,256,0.0,0.0,79,0.00,,,0.00,,2013-04-22 00:00:00,
2013-04-21 17:10:00,60.5,54.0,29.90,WSW,257,0.0,0.0,78,0.00,,,0.00,,2013-04-22 00:10:00,
2013-04-21 17:20:00,60.4,54.0,29.90,WNW,289,0.0,0.0,80,0.00,,,0.00,,2013-04-22 00:20:00,
2013-04-21 17:30:00,59.5,53.0,29.90,WNW,288,0.0,0.0,80,0.00,,,0.00,,2013-04-22 00:30:00,
2013-04-21 17:40:00,59.3,53.0,29.89,WNW,288,0.0,0.0,80,0.00,,,0.00,,2013-04-22 00:40:00,
2013-04-21 17:50:00,58.5,53.0,29.89,WNW,288,0.0,0.0,81,0.00,,,0.00,,2013-04-22 00:50:00,
2013-04-21 18:00:00,58.1,53.0,29.89,WNW,288,0.0,3.0,82,0.00,,,0.00,,2013-04-22 01:00:00,
2013-04-21 18:10:00,58.3,53.0,29.89,WNW,288,0.0,0.0,82,0.00,,,0.00,,2013-04-22 01:10:00,
2013-04-21 18:20:00,58.5,53.0,29.89,WNW,288,0.0,0.0,82,0.00,,,0.00,,2013-04-22 01:20:00,
2013-04-21 18:30:00,57.7,52.0,29.89,WNW,288,0.0,0.0,82,0.00,,,0.00,,2013-04-22 01:30:00,
2013-04-21 18:40:00,57.4,52.0,29.89,WNW,288,0.0,0.0,83,0.00,,,0.00,,2013-04-22 01:40:00,
2013-04-21 18:50:00,56.8,52.0,29.89,WNW,287,0.0,0.0,84,0.00,,,0.00,,2013-04-22 01:50:00,
2013-04-21 19:00:00,56.7,52.0,29.89,WNW,288,0.0,0.0,84,0.00,,,0.00,,2013-04-22 02:00:00,
2013-04-21 19:10:00,56.6,52.0,29.89,WNW,288,0.0,0.0,84,0.00,,,0.00,,2013-04-22 02:10:00,
2013-04-21 19:20:00,56.1,51.0,29.89,WNW,285,0.0,0.0,84,0.00,,,0.00,,2013-04-22 02:20:00,
2013-04-21 19:30:00,55.5,51.0,29.89,WNW,287,0.0,0.0,85,0.00,,,0.00,,2013-04-22 02:30:00,
2013-04-21 19:40:00,54.8,51.0,29.90,West,278,0.0,0.0,86,0.00,,,0.00,,2013-04-22 02:40:00,
2013-04-21 19:50:00,54.1,50.0,29.90,SSW,196,0.0,0.0,87,0.00,,,0.00,,2013-04-22 02:50:00,
2013-04-21 20:00:00,53.7,50.0,29.90,South,179,0.0,0.0,88,0.00,,,0.00,,2013-04-22 03:00:00,
2013-04-21 20:10:00,53.5,50.0,29.91,SSE,167,0.0,0.0,88,0.00,,,0.00,,2013-04-22 03:10:00,
2013-04-21 20:20:00,53.4,50.0,29.91,South,184,0.0,0.0,89,0.00,,,0.00,,2013-04-22 03:20:00,
2013-04-21 20:30:00,53.3,50.0,29.92,South,173,0.0,0.0,89,0.00,,,0.00,,2013-04-22 03:30:00,
2013-04-21 20:40:00,53.3,50.0,29.92,South,173,0.0,0.0,90,0.00,,,0.00,,2013-04-22 03:40:00,
2013-04-21 20:50:00,53.1,50.0,29.93,SSE,153,0.0,0.0,90,0.00,,,0.00,,2013-04-22 03:50:00,
2013-04-21 21:00:00,53.1,50.0,29.93,SSE,167,0.0,0.0,90,0.00,,,0.00,,2013-04-22 04:00:00,
2013-04-21 21:10:00,53.1,51.0,29.93,SSE,165,0.0,0.0,91,0.00,,,0.00,,2013-04-22 04:10:00,
2013-04-21 21:20:00,53.1,51.0,29.94,SSE,167,0.0,0.0,91,0.00,,,0.00,,2013-04-22 04:20:00,
2013-04-21 21:30:00,52.9,50.0,29.94,SSE,153,0.0,0.0,91,0.00,,,0.00,,2013-04-22 04:30:00,
2013-04-21 21:40:00,53.0,50.0,29.93,South,169,0.0,0.0,91,0.00,,,0.00,,2013-04-22 04:40:00,
2013-04-21 21:50:00,53.0,50.0,29.94,SSE,167,0.0,0.0,91,0.00,,,0.00,,2013-04-22 04:50:00,
2013-04-21 22:00:00,52.8,50.0,29.94,SSE,165,0.0,0.0,91,0.00,,,0.00,,2013-04-22 05:00:00,
2013-04-21 22:10:00,52.3,50.0,29.94,SSE,163,0.0,0.0,91,0.00,,,0.00,,2013-04-22 05:10:00,
2013-04-21 22:20:00,52.3,50.0,29.94,SSE,148,0.0,1.0,92,0.00,,,0.00,,2013-04-22 05:20:00,
2013-04-21 22:30:00,52.4,50.0,29.94,SSE,148,0.0,0.0,92,0.00,,,0.00,,2013-04-22 05:30:00,
2013-04-21 22:40:00,52.4,50.0,29.94,SSE,163,1.0,1.0,92,0.00,,,0.00,,2013-04-22 05:40:00,
2013-04-21 22:50:00,52.4,50.0,29.94,SSE,150,0.0,0.0,92,0.00,,,0.00,,2013-04-22 05:50:00,
2013-04-21 23:00:00,52.1,50.0,29.94,SSE,150,0.0,1.0,92,0.00,,,0.00,,2013-04-22 06:00:00,
2013-04-21 23:10:00,52.1,50.0,29.93,SSE,150,0.0,1.0,92,0.00,,,0.00,,2013-04-22 06:10:00,
2013-04-21 23:20:00,52.0,50.0,29.93,SSE,150,0.0,0.0,92,0.00,,,0.00,,2013-04-22 06:20:00,
2013-04-21 23:30:00,51.9,50.0,29.93,SSE,150,0.0,0.0,92,0.00,,,0.00,,2013-04-22 06:30:00,
2013-04-21 23:40:00,51.8,50.0,29.93,SSE,162,0.0,0.0,92,0.00,,,0.00,,2013-04-22 06:40:00,
2013-04-21 23:50:00,51.7,49.0,29.93,SSE,162,1.0,1.0,92,0.00,,,0.00,,2013-04-22 06:50:00,